Hourly Data Report for October 03, 2017

All times are specified in Local Standard Time (LST). Add 1 hour to adjust for Daylight Saving Time where and when it is observed.

LAC LA MARTRE
NORTHWEST TERRITORIES

63°08'01.070" N
117°14'41.050" W
271.30 m
2202678
71163
WMT

Download Data

Hourly Data (October 2017)
Hourly Data Report for October 3, 2017
Temp Definition
°C
Dew Point Temp Definition
°C
Rel Hum Definition
%
Wind Dir Definition
10's deg

Wind Spd Definition
km/h
Visibility Definition
km
Stn Press Definition
kPa
Hmdx Definition


Wind Chill Definition


Weather Definition


TIME
00:00 3.3 -0.5 76 12 7   98.11     LegendNANA
01:00 3.2 -0.6 76 10 7   98.00     LegendNANA
02:00 2.1 -0.9 81 8 10   97.93     LegendNANA
03:00 2.3 -0.4 83 9 9   97.87     LegendNANA
04:00 2.3 0.1 85 7 8   97.73     LegendNANA
05:00 2.8 0.4 84 9 7   97.63     LegendNANA
06:00 2.2 0.1 86 3 3   97.71     LegendNANA
07:00 2.3 0.8 90 5 5   97.64     LegendNANA
08:00 2.4 1.5 94 36 6   97.64     LegendNANA
09:00 3.1 2.3 95 35 7   97.68     LegendNANA
10:00 4.0 3.0 93 33 9   97.74     LegendNANA
11:00 4.1 2.6 90 35 17   97.80     LegendNANA
12:00 4.5 2.7 88 34 14   97.90     LegendNANA
13:00 4.8 2.4 84 34 15   97.98     LegendNANA
14:00 4.5 1.8 83 36 17   98.14     LegendNANA
15:00 4.2 1.3 82 36 18   98.30     LegendNANA
16:00 4.2 1.4 82 36 14   98.35     LegendNANA
17:00 3.6 0.9 83 35 11   98.49     LegendNANA
18:00 3.0 0.7 85 34 14   98.59     LegendNANA
19:00 2.2 -0.2 84 34 10   98.64     LegendNANA
20:00 1.9 0.1 88 34 10   98.69     LegendNANA
21:00 1.3 -0.3 89 34 6   98.76     LegendNANA
22:00 1.0 -0.2 92 2 6   98.74     LegendNANA
23:00 -0.2 -1.1 93 36 4   98.77   -1 LegendNANA

Notes on Data Quality.

Legend

  • E = Estimated
  • M = Missing
  • NA = Not Available
  • ‡ = Partner data that is not subject to review by the National Climate Archives
Date modified: